sat.trackr.live / text

‹ back to catalog

STARLINK-34432

NORAD 64426 · 2025-129Q

PAYLOAD ACTIVE UNKNOWN

§ Identity

Operator
Country
US
Launch date
2025-06-17
Launch site
AFWTR
Launch vehicle
Mass (kg)
RCS (m²)

Purposes: comms

External: N2YO · Heavens-Above · Gunter

§ Orbital elements

Epoch: 2026-05-24T16:55:22.098432Z

Period
96.11 min
Inclination
70.0005°
Eccentricity
0.0003401
Mean motion
14.98344393 rev/d
Perigee alt
569.6 km
Apogee alt
574.4 km
Semi-major
6,950.1 km
B*
4.6978e-4
RAAN
242.7886°
Arg perigee
273.0629°
Mean anomaly
87.0141°
Rev number
5,261

§ Raw data

STARLINK-344321 64426U 25129Q   26144.70511688  .00005519  00000+0  46978-3 0  99902 64426  70.0005 242.7886 0003401 273.0629  87.0141 14.98344393 52613

JSON: /api/v1/satellites/64426 · /tle

For live sub-satellite position, see the globe view (requires WebGL).

§ Visibility from observer

Set your observer location to see the next 7 days of passes ≥ 10°. The values pass through the URL so the page stays shareable.

No JS? Fill the form by hand. The geolocation button needs JavaScript.